User: anonymous   Login
Location: Cheching
(60.0667°N, 164.2167°W)
Time: 10:35:42
(UTC+00:00)
Language:

NO-84 - Orbit

View from above orbital plane
View from above orbital plane
View from above satellite
View from above satellite

Ground track
Ground track

The orbit data is extracted from the following two-line orbital elements,

1 40654U 15025D   21013.36363367  .00020087  00000-0  18948-3 0  1549
2 40654  54.9838  48.8481 0098681  17.7618 342.6957 15.61036929201723
Epoch (UTC): 13 January 2021 08:43:37
Eccentricity: 0.0098681
inclination: 54.9838°
perigee height: 318 km
apogee height: 451 km
right ascension of ascending node: 48.8481°
argument of perigee: 17.7618°
revolutions per day: 15.61036929
mean anomaly at epoch: 342.6957°
orbit number at epoch: 20172

The dashed part of the orbit path shows where the satellite is in the earth's shadow,  

DLR